Home   Weather   Plano   Past weeks

Flag for USA Past Weather in Plano, Texas, USA — Yesterday and Last 2 Weeks

Now
74 °F

Mostly cloudy.


Feels Like: 75 °F
Forecast: 58 / 74 °F
Wind: 14 mph from South

Location: McKinney Municipal Airport

Current Time: Feb 27, 2017 at 5:01:28 pm

Latest Report: Feb 27, 2017 at 3:53 pm


Visibility: 10 mi

Pressure: 29.85 "Hg

Humidity: 76%

Dew Point: 66 °F

Location of PlanoLocation

Past Weather in Plano — Graph

°F

Plano Temperature Yesterday

Maximum temperature yesterday: 62 °F (at 4:34 pm)
Minimum temperature yesterday: 35 °F (at 12:53 am)
Average temperature yesterday: 53 °F

High & Low Weather Summary for the Past Weeks

 TemperatureHumidityPressure
High85 °F (Feb 23, 1:53 pm)100% (Feb 18, 3:53 am)30.33 "Hg (Feb 18, 3:53 am)
Low31 °F (Feb 25, 6:53 am)24% (Feb 15, 2:53 pm)29.46 "Hg (Feb 23, 4:53 pm)
Average57 °F72%29.94 "Hg
* Reported Feb 12 3:53 pm — Feb 27 3:53 pm, Plano, Weather by CustomWeather, © 2017

Note: Actual official high and low records may vary slightly from our data, if they occured in-between our weather recording intervals... More about our weather records

Advertising

Plano Weather History for the Previous 24 Hours

Scroll right to see more
 ConditionsComfort  
Time TempWeatherWind HumidityBarometerVisibility
3:53 pm
Mon, Feb 27
74 °FMostly cloudy.14 mph76%29.85 "Hg10 mi
3:04 pm73 °FBroken clouds.13 mph79%29.87 "Hg10 mi
2:53 pm73 °FPartly sunny.9 mph79%29.88 "Hg10 mi
1:53 pm71 °FLight rain. Mostly cloudy.14 mph84%29.90 "Hg8 mi
1:37 pm70 °FThundershowers. Overcast.15 mph87%29.91 "Hg9 mi
1:10 pm71 °FThunderstorms. Mostly cloudy.17 mph84%29.92 "Hg10 mi
12:53 pm70 °FThundershowers. Mostly cloudy.15 mph84%29.93 "Hg8 mi
12:09 pm74 °FBroken clouds.15 mph74%29.95 "Hg10 mi
10:57 am68 °FFog.7 mph93%29.97 "Hg6 mi
9:53 am62 °FFog.8 mph100%29.99 "Hg4 mi
9:22 am61 °FFog.7 mph100%29.98 "Hg4 mi
8:53 am60 °FFog.5 mph100%29.98 "Hg5 mi
8:27 am59 °FFog.5 mph100%29.97 "Hg3 mi
8:17 am59 °FFog.6 mph100%29.96 "Hg1 mi
8:07 am59 °FFog.6 mph100%29.96 "Hg2 mi
7:53 am58 °FFog.5 mph100%29.97 "Hg3 mi
7:37 am58 °FFog.6 mph100%29.96 "Hg3 mi
7:02 am57 °FFog.5 mph100%29.95 "Hg3 mi
6:53 am57 °FFog.7 mph100%29.96 "Hg3 mi
5:53 am57 °FLow clouds.6 mph100%29.95 "Hg7 mi
4:53 am56 °FOvercast.5 mph100%29.95 "Hg7 mi
3:53 am55 °FOvercast.3 mph100%29.93 "Hg8 mi
2:53 am54 °FOvercast.3 mph100%29.94 "Hg9 mi
1:53 am54 °FMostly cloudy.No wind100%29.94 "Hg10 mi
12:53 am53 °FPassing clouds.No wind100%29.93 "Hg10 mi
12:09 am55 °FPartly cloudy.5 mph96%29.92 "Hg10 mi
11:53 pm
Sun, Feb 26
55 °FMostly cloudy.No wind96%29.94 "Hg10 mi
11:32 pm55 °FThunderstorms. Mostly cloudy.9 mph96%29.92 "Hg10 mi
10:53 pm57 °FThunderstorms. Mostly cloudy.16 mph87%29.96 "Hg10 mi
10:10 pm56 °FThunderstorms. Partly cloudy.No wind90%29.92 "Hg10 mi
10:00 pm57 °FThundershowers. Passing clouds.No wind87%29.93 "Hg10 mi
9:29 pm56 °FPassing clouds.6 mph90%29.93 "Hg10 mi
9:14 pm56 °FThundershowers. Passing clouds.5 mph90%29.92 "Hg10 mi
8:53 pm57 °FPassing clouds.5 mph87%29.93 "Hg10 mi
7:53 pm57 °FOvercast.3 mph87%29.94 "Hg10 mi
7:37 pm58 °FPassing clouds.3 mph84%29.92 "Hg10 mi
7:00 pm58 °FPassing clouds.3 mph84%29.90 "Hg10 mi
5:53 pm60 °FScattered clouds.9 mph78%29.91 "Hg10 mi
Weather by CustomWeather, © 2017

See weather overviewHow to use our weather pages